METEOR 1-29

Last updated on Fri Mar 01 2024 00:02:09 GMT+0000 (Coordinated Universal Time)

1 11251U 79005A 24060.60871372 .02953612 27175-5 44182-3 0 9994 2 11251 97.7011 98.6337 0006467 232.3479 256.9446 16.34395577 17493
UTC large
Height (km)
Speed (km/s)
/
Latitude / Longitude
Inclination (degrees)
Orbital Period (minutes)
Azimuth
Elevation
Range (km)
Doppler Factor

Next 0 passes for location: London (51.5072 / 0.1276)

Sorry there are no passes over London.
METEOR 1-29